OKEAN-0
1 25860U 99039A   10327.84385089  .00000174  00000-0  33983-4 0 01599
2 25860 097.8550 295.3129 0000749 048.5592 311.5686 14.73686132610414
NOAA-16
1 26536U 00055A   10327.95201739 -.00000001  00000-0  24685-4 0 00825
2 26536 099.1613 349.1230 0009930 246.5341 113.4761 14.12586807524388
NOAA-17
1 27453U 02032A   10327.61674709 -.00000086  00000-0 -19248-4 0 00727
2 27453 098.4114 011.4690 0012173 035.9206 324.2799 14.24210920437397
NOAA-18
1 28654U 05018A   10327.66470591 -.00000116  00000-0 -39171-4 0 05621
2 28654 098.9702 273.6080 0014070 327.2907 032.7381 14.11410020283933
NOAA-19
1 33591U 09005A   10327.61667105  .00000177  00000-0  12259-3 0 07568
2 33591 098.8059 266.4621 0013759 195.1385 164.9377 14.11104475092394
HUBBLE
1 20580U 90037B   10326.29371627  .00000743  00000-0  43917-4 0 06790
2 20580 028.4707 287.6103 0003590 084.5178 275.5728 15.01100982928532
ISS
1 25544U 98067A   10328.53341692  .00013805  00000-0  10297-3 0  3316
2 25544 051.6429 129.9864 0006958 237.2523 192.1606 15.73062245688697
CO-58
1 28895U 05043F   10327.87898337  .00000496  00000-0  11252-3 0 07351
2 28895 097.9928 206.8567 0018549 142.0022 218.2536 14.59970170270289
FALCON
1 30776U 07006E   10327.88742926  .00000975  00000-0  72171-4 0  9640
2 30776 035.4317 154.5230 0000164 311.9690 048.1013 15.03968383204119
MAST
1 31126U 07012K   10327.57471239  .00000183  00000-0  51377-4 0   185
2 31126 097.9194 001.1892 0095462 090.3631 270.8530 14.53646100191212
CAPE1
1 31130U 07012P   10327.57308330  .00000185  00000-0  52668-4 0   389
2 31130 097.9207 358.2933 0104009 099.9501 261.3390 14.52255483190793
COMPASS
1 32787U 08021E   10327.17695264  .00000448  00000-0  62980-4 0 08388
2 32787 097.8771 029.5971 0016691 125.9473 234.3251 14.82053188139042
AAUSAT2
1 32788U 08021F   10327.63670055  .00000724  00000-0  97187-4 0 08284
2 32788 097.8775 030.2151 0016273 124.9243 235.3473 14.82210091139120
DO-64
1 32789U 08021G   10327.69300256  .00001333  00000-0  17246-3 0 08468
2 32789 097.8848 030.9415 0016442 123.7199 236.5595 14.82452962139131
CO-66
1 32791U 08021J   10327.15585530  .00000766  00000-0  10341-3 0 08291
2 32791 097.8791 029.5691 0016850 124.2363 236.0467 14.81810119138990
RS-30
1 32953U 08025A   10327.98100920  .00000010  00000-0  00000 0 0  2408
2 32953 082.4992 290.3101 0019845 110.9353 249.3847 12.43009393113593
TACSAT-3
1 35001U 09028A   10327.49477394  .00007578  00000-0  16749-3 0 04507
2 35001 040.4562 335.9646 0020986 118.6184 241.6746 15.43740116085243
PHARMSAT
1 35002U 09028B   10327.40364120  .00006584  00000-0  14450-3 0 04100
2 35002 040.4710 334.0792 0023370 121.3079 239.0027 15.44052169085254
HAWKSAT1
1 35003U 09028C   10327.41830917  .00016400  00000-0  29255-3 0  4459
2 35003 040.4616 322.8696 0022479 146.8516 213.3717 15.49362289 85382
CP6
1 35004U 09028D   10326.39267207  .00021731  00000-0  36342-3 0 04494
2 35004 040.4635 326.4908 0022131 146.2049 214.0189 15.51054264085240
AEROCUB3
1 35005U 09028E   10327.29876736  .00195324  00000-0  12807-2 0 05353
2 35005 040.4691 303.2459 0025150 180.7929 179.2861 15.73897507085586
METEOR-M
1 35865U 09049A   10328.01857395  .00000176  00000-0  10000-3 0  8628
2 35865 098.7374 020.4998 0001738 275.5478 084.5492 14.21833183 61436
RS-38
1 35869U 09049E   10328.04280522  .00000177  00000-0  10000-3 0  8741
2 35869 098.7365 020.5652 0003899 266.8828 093.1898 14.21994215 61441
